,,Stat1,,Stat2,,Stat3,,Stat4,,Wind1,,Wind1,
time,status,PR1M_SUM,status,RH1M_AVG,status,SR1M_AVG,status,TA1M_AVG,status,W1dAve1m,status,W1sAve1m,
2000-03-24, 00:01:00,VALID,0,VALID,97.7775,VALID,-0.0169808,VALID,18.5977,VALID,105,VALID,1.01964,
2000-03-24, 00:02:00,VALID,0,VALID,97.7584,VALID,0,VALID,18.5783,VALID,102,VALID,0.832348,
2000-03-24, 00:03:00,VALID,0,VALID,97.7749,VALID,0,VALID,18.5818,VALID,106,VALID,1.38076,
2000-03-24, 00:04:00,VALID,0,VALID,97.7648,VALID,-0.0509425,VALID,18.5723,VALID,93,VALID,1.09945,
2000-03-24, 00:05:00,VALID,0,VALID,97.8004,VALID,-0.0509425,VALID,18.5525,VALID,96,VALID,1.02604,
2000-03-24, 00:06:00,VALID,0.2,VALID,97.7889,VALID,-0.0169808,VALID,18.5395,VALID,101,VALID,0.943051,
2000-03-24, 00:07:00,VALID,0,VALID,97.8207,VALID,-0.0509425,VALID,18.5271,VALID,96,VALID,1.04046,
2000-03-24, 00:08:00,VALID,0,VALID,97.8601,VALID,-0.0509425,VALID,18.5075,VALID,111,VALID,1.19712,
2000-03-24, 00:09:00,VALID,0,VALID,97.9174,VALID,-0.0679233,VALID,18.504,VALID,97,VALID,1.02744,
2000-03-24, 00:10:00,VALID,0,VALID,97.9657,VALID,-0.0509425,VALID,18.4946,VALID,96,VALID,1.02012,
2000-03-24, 00:11:00,VALID,0,VALID,97.9771,VALID,-0.0339617,VALID,18.4946,VALID,95,VALID,0.982422,
2000-03-24, 00:12:00,VALID,0,VALID,98.0318,VALID,0,VALID,18.504,VALID,98,VALID,0.785457,
2000-03-24, 00:13:00,VALID,0,VALID,98.0496,VALID,-0.0169808,VALID,18.5075,VALID,98,VALID,0.817779,
2000-03-24, 00:14:00,VALID,0,VALID,98.0026,VALID,-0.0509425,VALID,18.4946,VALID,97,VALID,0.619141,
2000-03-24, 00:15:00,VALID,0,VALID,98.0623,VALID,-0.0679233,VALID,18.504,VALID,89,VALID,0.577691,
2000-03-24, 00:16:00,VALID,0.2,VALID,98.0928,VALID,-0.0509425,VALID,18.5273,VALID,92,VALID,0.666324,
2000-03-24, 00:17:00,VALID,0,VALID,98.103,VALID,-0.0849042,VALID,18.5142,VALID,90,VALID,0.496205,
2000-03-24, 00:18:00,VALID,0,VALID,98.1272,VALID,-0.0509425,VALID,18.5139,VALID,91,VALID,0.550391,
2000-03-24, 00:19:00,VALID,0,VALID,98.1157,VALID,-0.0849042,VALID,18.5276,VALID,93,VALID,0.622243,
2000-03-24, 00:20:00,VALID,0,VALID,98.0954,VALID,-0.0509425,VALID,18.5107,VALID,86,VALID,0.424045,
2000-03-24, 00:21:00,VALID,0,VALID,98.1081,VALID,-0.0339617,VALID,18.5105,VALID,73,VALID,0,
2000-03-24, 00:22:00,VALID,0,VALID,98.1005,VALID,-0.0339617,VALID,18.5107,VALID,56,VALID,0,
2000-03-24, 00:23:00,VALID,0.2,VALID,98.0776,VALID,-0.0509425,VALID,18.5043,VALID,50,VALID,0,
2000-03-24, 00:24:00,VALID,0,VALID,98.0865,VALID,-0.0509425,VALID,18.5045,VALID,46,VALID,0,
2000-03-24, 00:25:00,VALID,0,VALID,98.1628,VALID,0.0169808,VALID,18.5001,VALID,43,VALID,0,
2000-03-24, 00:26:00,VALID,0,VALID,98.1857,VALID,-0.0169808,VALID,18.5001,VALID,42,VALID,0,
2000-03-24, 00:27:00,VALID,0,VALID,98.2518,VALID,0,VALID,18.4902,VALID,42,VALID,0,
2000-03-24, 00:28:00,VALID,0,VALID,98.3561,VALID,0.0169808,VALID,18.4936,VALID,94,VALID,0,
2000-03-24, 00:29:00,VALID,0,VALID,98.4438,VALID,0.0169808,VALID,18.4962,VALID,106,VALID,0,
2000-03-24, 00:30:01,VALID,0,VALID,98.4209,VALID,0,VALID,18.4941,VALID,106,VALID,0,
2000-03-24, 00:31:00,VALID,0,VALID,98.4705,VALID,0,VALID,18.4973,VALID,106,VALID,0,
2000-03-24, 00:32:00,VALID,0.2,VALID,98.5315,VALID,0,VALID,18.4934,VALID,106,VALID,0,
2000-03-24, 00:33:00,VALID,0,VALID,98.5443,VALID,0,VALID,18.4936,VALID,106,VALID,0,
2000-03-24, 00:34:00,VALID,0,VALID,98.571,VALID,0.0169808,VALID,18.4934,VALID,106,VALID,0,
2000-03-24, 00:35:00,VALID,0,VALID,98.604,VALID,0.0169808,VALID,18.4835,VALID,106,VALID,0,
2000-03-24, 00:36:00,VALID,0,VALID,98.6167,VALID,0.0169808,VALID,18.4736,VALID,106,VALID,0,
2000-03-24, 00:37:00,VALID,0,VALID,98.6091,VALID,0.0169808,VALID,18.4609,VALID,93,VALID,0,
2000-03-24, 00:38:00,VALID,0,VALID,98.6218,VALID,0,VALID,18.4574,VALID,92,VALID,0,
2000-03-24, 00:39:00,VALID,0,VALID,98.6155,VALID,0.0339617,VALID,18.4583,VALID,107,VALID,0,
2000-03-24, 00:40:00,VALID,0,VALID,98.5964,VALID,0.0169808,VALID,18.4415,VALID,111,VALID,0,
2000-03-24, 00:41:01,VALID,0,VALID,98.5214,VALID,0.0169808,VALID,18.4258,VALID,110,VALID,0,
2000-03-24, 00:42:00,VALID,0,VALID,98.398,VALID,0,VALID,18.3901,VALID,106,VALID,0,
2000-03-24, 00:43:00,VALID,0,VALID,98.3472,VALID,0,VALID,18.3905,VALID,106,VALID,0,
2000-03-24, 00:44:00,VALID,0,VALID,98.3573,VALID,0,VALID,18.3875,VALID,109,VALID,0,
2000-03-24, 00:45:00,VALID,0,VALID,98.3421,VALID,0,VALID,18.3739,VALID,110,VALID,0,
2000-03-24, 00:46:00,VALID,0,VALID,98.2836,VALID,0.0169808,VALID,18.3679,VALID,113,VALID,0,
2000-03-24, 00:47:00,VALID,0,VALID,98.2467,VALID,0.0169808,VALID,18.3446,VALID,120,VALID,0,
2000-03-24, 00:48:00,VALID,0,VALID,98.2531,VALID,0,VALID,18.3419,VALID,120,VALID,0,
2000-03-24, 00:49:00,VALID,0,VALID,98.3103,VALID,0,VALID,18.352,VALID,120,VALID,0,
2000-03-24, 00:50:00,VALID,0,VALID,98.3014,VALID,0.0169808,VALID,18.3423,VALID,120,VALID,0,
2000-03-24, 00:51:00,VALID,0,VALID,98.2442,VALID,0.0169808,VALID,18.3327,VALID,121,VALID,0,
2000-03-24, 00:52:01,VALID,0,VALID,98.2137,VALID,0,VALID,18.3131,VALID,122,VALID,0,
2000-03-24, 00:53:00,VALID,0.2,VALID,98.1602,VALID,-0.0169808,VALID,18.2875,VALID,135,VALID,0,
2000-03-24, 00:54:00,VALID,0,VALID,98.0941,VALID,-0.0169808,VALID,18.2708,VALID,143,VALID,0,
2000-03-24, 00:55:00,VALID,0,VALID,98.0153,VALID,0,VALID,18.2487,VALID,148,VALID,0,
2000-03-24, 00:56:00,VALID,0,VALID,97.986,VALID,0,VALID,18.2485,VALID,147,VALID,0,
2000-03-24, 00:57:00,VALID,0,VALID,97.9352,VALID,0,VALID,18.2489,VALID,150,VALID,0,
2000-03-24, 00:58:00,VALID,0,VALID,97.8067,VALID,0,VALID,18.2229,VALID,149,VALID,0,
2000-03-24, 00:59:00,VALID,0,VALID,97.6986,VALID,0,VALID,18.213,VALID,148,VALID,0,
2000-03-24, 01:00:00,VALID,0,VALID,97.7076,VALID,0,VALID,18.2196,VALID,137,VALID,0,
2000-03-24, 01:01:00,VALID,0,VALID,97.8131,VALID,0.0339617,VALID,18.2321,VALID,135,VALID,0,
2000-03-24, 01:02:00,VALID,0,VALID,97.9453,VALID,0,VALID,18.2455,VALID,135,VALID,0,
2000-03-24, 01:03:01,VALID,0,VALID,98.0344,VALID,0.0169808,VALID,18.2614,VALID,135,VALID,0,
2000-03-24, 01:04:00,VALID,0,VALID,98.0483,VALID,-0.0169808,VALID,18.2455,VALID,141,VALID,0,
2000-03-24, 01:05:00,VALID,0,VALID,98.0356,VALID,0,VALID,18.2164,VALID,151,VALID,0,
2000-03-24, 01:06:00,VALID,0,VALID,98.0789,VALID,-0.0339617,VALID,18.2037,VALID,166,VALID,0,
2000-03-24, 01:07:00,VALID,0,VALID,98.1857,VALID,-0.0169808,VALID,18.1816,VALID,187,VALID,0,
2000-03-24, 01:08:00,VALID,0,VALID,98.3052,VALID,0.0169808,VALID,18.1583,VALID,202,VALID,0,
2000-03-24, 01:09:00,VALID,0,VALID,98.3815,VALID,-0.0339617,VALID,18.1551,VALID,191,VALID,0,
2000-03-24, 01:10:00,VALID,0,VALID,98.4731,VALID,0,VALID,18.1424,VALID,179,VALID,0,
2000-03-24, 01:11:00,VALID,0,VALID,98.571,VALID,-0.0169808,VALID,18.126,VALID,178,VALID,0,
2000-03-24, 01:12:00,VALID,0,VALID,98.6091,VALID,0,VALID,18.123,VALID,185,VALID,0,
2000-03-24, 01:13:00,VALID,0,VALID,98.66,VALID,0,VALID,18.1101,VALID,174,VALID,0,
2000-03-24, 01:14:01,VALID,0,VALID,98.7236,VALID,0,VALID,18.1002,VALID,168,VALID,0,
2000-03-24, 01:15:00,VALID,0,VALID,98.7541,VALID,-0.0169808,VALID,18.1036,VALID,168,VALID,0,
2000-03-24, 01:16:00,VALID,0,VALID,98.8367,VALID,0,VALID,18.1166,VALID,165,VALID,0,
2000-03-24, 01:17:00,VALID,0,VALID,98.8596,VALID,-0.0169808,VALID,18.1292,VALID,164,VALID,0,
2000-03-24, 01:18:00,VALID,0,VALID,98.8622,VALID,-0.0169808,VALID,18.1166,VALID,170,VALID,0,
2000-03-24, 01:19:00,VALID,0,VALID,98.8634,VALID,-0.0169808,VALID,18.0935,VALID,170,VALID,0,
2000-03-24, 01:20:00,VALID,0,VALID,98.899,VALID,-0.0169808,VALID,18.091,VALID,170,VALID,0,
2000-03-24, 01:21:00,VALID,0,VALID,98.9423,VALID,0,VALID,18.0838,VALID,170,VALID,0,
2000-03-24, 01:22:00,VALID,0,VALID,98.9728,VALID,0,VALID,18.0907,VALID,170,VALID,0,
2000-03-24, 01:23:00,VALID,0,VALID,99.0097,VALID,0,VALID,18.0967,VALID,170,VALID,0,
2000-03-24, 01:24:01,VALID,0,VALID,99.0542,VALID,0,VALID,18.1034,VALID,170,VALID,0,
2000-03-24, 01:25:01,VALID,0,VALID,99.0707,VALID,-0.0679233,VALID,18.117,VALID,170,VALID,0,
2000-03-24, 01:26:00,VALID,0,VALID,99.0618,VALID,-0.0849042,VALID,18.1004,VALID,170,VALID,0,
2000-03-24, 01:27:00,VALID,0,VALID,99.0631,VALID,-0.118866,VALID,18.1115,VALID,170,VALID,0,
2000-03-24, 01:28:00,VALID,0,VALID,99.0771,VALID,-0.0849042,VALID,18.1046,VALID,170,VALID,0,
2000-03-24, 01:29:00,VALID,0,VALID,99.0872,VALID,-0.0509425,VALID,18.108,VALID,170,VALID,0,
2000-03-24, 01:30:00,VALID,0,VALID,99.044,VALID,-0.0509425,VALID,18.0852,VALID,170,VALID,0,
2000-03-24, 01:31:00,VALID,0,VALID,99.0567,VALID,-0.0339617,VALID,18.0688,VALID,170,VALID,0,
2000-03-24, 01:32:00,VALID,0,VALID,99.0478,VALID,-0.0849042,VALID,18.0499,VALID,170,VALID,0,
2000-03-24, 01:33:00,VALID,0,VALID,99.0987,VALID,-0.0849042,VALID,18.0499,VALID,171,VALID,0,
2000-03-24, 01:34:00,VALID,0,VALID,99.1432,VALID,-0.0849042,VALID,18.0499,VALID,173,VALID,0,
2000-03-24, 01:35:00,VALID,0,VALID,99.1546,VALID,-0.118866,VALID,18.0434,VALID,170,VALID,0,
2000-03-24, 01:36:01,VALID,0,VALID,99.1546,VALID,-0.101885,VALID,18.0564,VALID,174,VALID,0,
2000-03-24, 01:37:00,VALID,0,VALID,99.189,VALID,-0.0849042,VALID,18.0363,VALID,189,VALID,0,
2000-03-24, 01:38:00,VALID,0,VALID,99.2284,VALID,-0.0679233,VALID,18.0529,VALID,200,VALID,0,
2000-03-24, 01:39:00,VALID,0,VALID,99.2347,VALID,-0.101885,VALID,18.0688,VALID,204,VALID,0,
2000-03-24, 01:40:00,VALID,0,VALID,99.2284,VALID,0.0169808,VALID,18.0642,VALID,204,VALID,0,
2000-03-24, 01:41:00,VALID,0,VALID,99.2284,VALID,0.0169808,VALID,18.084,VALID,200,VALID,0,
2000-03-24, 01:42:00,VALID,0,VALID,99.1991,VALID,0,VALID,18.0903,VALID,184,VALID,0,
2000-03-24, 01:43:00,VALID,0,VALID,99.1661,VALID,0.0169808,VALID,18.0774,VALID,175,VALID,0,
2000-03-24, 01:44:00,VALID,0,VALID,99.1508,VALID,0,VALID,18.0647,VALID,175,VALID,0,
2000-03-24, 01:45:00,VALID,0,VALID,99.1597,VALID,0.0509425,VALID,18.0506,VALID,175,VALID,0,
2000-03-24, 01:46:01,VALID,0,VALID,99.161,VALID,0.0169808,VALID,18.0776,VALID,174,VALID,0,
2000-03-24, 01:47:01,VALID,0,VALID,99.1724,VALID,0.0509425,VALID,18.0905,VALID,171,VALID,0,
2000-03-24, 01:48:00,VALID,0,VALID,99.1152,VALID,0.0169808,VALID,18.067,VALID,169,VALID,0,
2000-03-24, 01:49:00,VALID,0,VALID,99.0885,VALID,0.0339617,VALID,18.0545,VALID,169,VALID,0,
2000-03-24, 01:50:00,VALID,0,VALID,99.0936,VALID,0.0169808,VALID,18.0483,VALID,170,VALID,0,
2000-03-24, 01:51:00,VALID,0,VALID,99.1038,VALID,0.0339617,VALID,18.0352,VALID,173,VALID,0,
2000-03-24, 01:52:00,VALID,0,VALID,99.1241,VALID,0.0339617,VALID,18.0386,VALID,173,VALID,0,
2000-03-24, 01:53:00,VALID,0,VALID,99.1368,VALID,0,VALID,18.0421,VALID,173,VALID,0,
2000-03-24, 01:54:00,VALID,0,VALID,99.1241,VALID,0.0509425,VALID,18.0382,VALID,173,VALID,0,
2000-03-24, 01:55:00,VALID,0,VALID,99.1292,VALID,0.0339617,VALID,18.0388,VALID,173,VALID,0,
2000-03-24, 01:56:00,VALID,0,VALID,99.1686,VALID,0.0509425,VALID,18.0379,VALID,173,VALID,0,
2000-03-24, 01:57:00,VALID,0,VALID,99.1292,VALID,0.0169808,VALID,18.0324,VALID,173,VALID,0,
2000-03-24, 01:58:01,VALID,0,VALID,99.133,VALID,0.0509425,VALID,18.0126,VALID,186,VALID,0,
2000-03-24, 01:59:00,VALID,0,VALID,99.1534,VALID,0.0509425,VALID,18.0093,VALID,190,VALID,0,
2000-03-24, 02:00:00,VALID,0,VALID,99.1826,VALID,0,VALID,18.0192,VALID,192,VALID,0,
2000-03-24, 02:01:00,VALID,0,VALID,99.1966,VALID,0.0339617,VALID,18.0066,VALID,186,VALID,0,
2000-03-24, 02:02:00,VALID,0,VALID,99.1991,VALID,0.0169808,VALID,18.0033,VALID,185,VALID,0,
2000-03-24, 02:03:00,VALID,0,VALID,99.2131,VALID,-0.0169808,VALID,17.9973,VALID,183,VALID,0,
2000-03-24, 02:04:00,VALID,0,VALID,99.2347,VALID,0.0169808,VALID,18.0068,VALID,183,VALID,0,
2000-03-24, 02:05:00,VALID,0,VALID,99.2576,VALID,0,VALID,18.004,VALID,189,VALID,0,
2000-03-24, 02:06:00,VALID,0,VALID,99.2831,VALID,0.0169808,VALID,18.01,VALID,209,VALID,0,
2000-03-24, 02:07:00,VALID,0,VALID,99.3098,VALID,0.0169808,VALID,18.01,VALID,204,VALID,0,
2000-03-24, 02:08:00,VALID,0.2,VALID,99.3149,VALID,0.0339617,VALID,18.0128,VALID,210,VALID,0.0674913,
2000-03-24, 02:09:00,VALID,0,VALID,99.3238,VALID,0.0169808,VALID,18.01,VALID,202,VALID,0.4375,
2000-03-24, 02:10:00,VALID,0,VALID,99.3403,VALID,0.0339617,VALID,18.0033,VALID,184,VALID,0.657252,
2000-03-24, 02:11:00,VALID,0,VALID,99.3581,VALID,0,VALID,17.9964,VALID,166,VALID,0.344551,
2000-03-24, 02:12:00,VALID,0,VALID,99.3594,VALID,0,VALID,17.9904,VALID,165,VALID,0.478674,
2000-03-24, 02:13:00,VALID,0,VALID,99.3632,VALID,0,VALID,17.9777,VALID,166,VALID,0.487305,
2000-03-24, 02:14:00,VALID,0,VALID,99.3886,VALID,0.0169808,VALID,17.971,VALID,167,VALID,0.291667,
2000-03-24, 02:15:00,VALID,0,VALID,99.3823,VALID,-0.0339617,VALID,17.9777,VALID,167,VALID,0,
2000-03-24, 02:16:00,VALID,0,VALID,99.3784,VALID,-0.0169808,VALID,17.9549,VALID,167,VALID,0,
2000-03-24, 02:17:00,VALID,0,VALID,99.3873,VALID,0,VALID,17.9519,VALID,167,VALID,0,
2000-03-24, 02:18:01,VALID,0,VALID,99.3975,VALID,0,VALID,17.9418,VALID,169,VALID,0,
2000-03-24, 02:19:00,VALID,0,VALID,99.4077,VALID,0.0169808,VALID,17.9358,VALID,169,VALID,0,
2000-03-24, 02:20:00,VALID,0,VALID,99.4128,VALID,0,VALID,17.9358,VALID,160,VALID,0.301282,
2000-03-24, 02:21:00,VALID,0,VALID,99.4204,VALID,0.0339617,VALID,17.9224,VALID,157,VALID,0.585093,
2000-03-24, 02:22:00,VALID,0,VALID,99.4166,VALID,0.0169808,VALID,17.9261,VALID,153,VALID,0.557292,
2000-03-24, 02:23:00,VALID,0,VALID,99.4153,VALID,0.0169808,VALID,17.9291,VALID,149,VALID,0.467928,
2000-03-24, 02:24:00,VALID,0,VALID,99.4115,VALID,0,VALID,17.9198,VALID,141,VALID,0.379207,
2000-03-24, 02:25:00,VALID,0,VALID,99.4293,VALID,-0.0169808,VALID,17.9194,VALID,142,VALID,0.0170455,
2000-03-24, 02:26:00,VALID,0,VALID,99.4395,VALID,0,VALID,17.942,VALID,140,VALID,0,
2000-03-24, 02:27:00,VALID,0,VALID,99.4446,VALID,0,VALID,17.9588,VALID,139,VALID,0,
2000-03-24, 02:28:00,VALID,0,VALID,99.4331,VALID,0,VALID,17.9489,VALID,139,VALID,0,
2000-03-24, 02:29:00,VALID,0,VALID,99.4204,VALID,0,VALID,17.9422,VALID,139,VALID,0,
2000-03-24, 02:30:00,VALID,0,VALID,99.4153,VALID,-0.0169808,VALID,17.9295,VALID,139,VALID,0,
2000-03-24, 02:31:00,VALID,0,VALID,99.4242,VALID,0,VALID,17.9261,VALID,139,VALID,0,
2000-03-24, 02:32:00,VALID,0,VALID,99.4318,VALID,-0.0169808,VALID,17.9556,VALID,139,VALID,0,
2000-03-24, 02:33:00,VALID,0,VALID,99.4408,VALID,0,VALID,17.9551,VALID,139,VALID,0,
2000-03-24, 02:34:00,VALID,0,VALID,99.4496,VALID,0,VALID,17.9616,VALID,139,VALID,0,
2000-03-24, 02:35:00,VALID,0,VALID,99.4357,VALID,0,VALID,17.9614,VALID,139,VALID,0,
2000-03-24, 02:36:00,VALID,0,VALID,99.414,VALID,-0.0169808,VALID,17.9291,VALID,139,VALID,0,
2000-03-24, 02:37:00,VALID,0,VALID,99.4229,VALID,0,VALID,17.9459,VALID,139,VALID,0,
2000-03-24, 02:38:00,VALID,0,VALID,99.4217,VALID,0,VALID,17.9355,VALID,140,VALID,0,
2000-03-24, 02:39:00,VALID,0,VALID,99.409,VALID,0,VALID,17.9293,VALID,140,VALID,0,
2000-03-24, 02:40:01,VALID,0,VALID,99.3912,VALID,-0.0169808,VALID,17.9166,VALID,141,VALID,0,
2000-03-24, 02:41:00,VALID,0,VALID,99.3721,VALID,0,VALID,17.9065,VALID,141,VALID,0,
2000-03-24, 02:42:00,VALID,0,VALID,99.395,VALID,0,VALID,17.9136,VALID,141,VALID,0,
2000-03-24, 02:43:00,VALID,0,VALID,99.4128,VALID,-0.0169808,VALID,17.9235,VALID,141,VALID,0,
2000-03-24, 02:44:00,VALID,0,VALID,99.3937,VALID,-0.0339617,VALID,17.9104,VALID,141,VALID,0,
2000-03-24, 02:45:00,VALID,0,VALID,99.3784,VALID,-0.0169808,VALID,17.9037,VALID,141,VALID,0,
2000-03-24, 02:46:00,VALID,0,VALID,99.3721,VALID,-0.0169808,VALID,17.8975,VALID,141,VALID,0,
2000-03-24, 02:47:00,VALID,0,VALID,99.3835,VALID,0,VALID,17.894,VALID,141,VALID,0,
2000-03-24, 02:48:00,VALID,0,VALID,99.3581,VALID,-0.0339617,VALID,17.8811,VALID,142,VALID,0,
2000-03-24, 02:49:00,VALID,0,VALID,99.3149,VALID,-0.0169808,VALID,17.8585,VALID,180,VALID,0,
2000-03-24, 02:50:00,VALID,0,VALID,99.3301,VALID,-0.0339617,VALID,17.8426,VALID,206,VALID,0,
2000-03-24, 02:51:00,VALID,0,VALID,99.3403,VALID,0,VALID,17.8458,VALID,225,VALID,0,
2000-03-24, 02:52:00,VALID,0,VALID,99.3187,VALID,-0.0339617,VALID,17.8264,VALID,217,VALID,0,
2000-03-24, 02:53:00,VALID,0,VALID,99.2983,VALID,-0.0169808,VALID,17.8038,VALID,218,VALID,0,
2000-03-24, 02:54:00,VALID,0,VALID,99.2767,VALID,0,VALID,17.7773,VALID,208,VALID,0,
2000-03-24, 02:55:00,VALID,0,VALID,99.2462,VALID,0,VALID,17.775,VALID,191,VALID,0,
2000-03-24, 02:56:00,VALID,0,VALID,99.2322,VALID,-0.0339617,VALID,17.7552,VALID,189,VALID,0,
2000-03-24, 02:57:00,VALID,0,VALID,99.2538,VALID,0,VALID,17.7616,VALID,186,VALID,0,
2000-03-24, 02:58:00,VALID,0,VALID,99.2805,VALID,-0.0169808,VALID,17.7939,VALID,182,VALID,0,
2000-03-24, 02:59:00,VALID,0,VALID,99.1623,VALID,0,VALID,17.7842,VALID,170,VALID,0,
2000-03-24, 03:00:00,VALID,0,VALID,99.1025,VALID,-0.0339617,VALID,17.7686,VALID,169,VALID,0,
2000-03-24, 03:01:00,VALID,0,VALID,99.0593,VALID,-0.0169808,VALID,17.7386,VALID,169,VALID,0,
2000-03-24, 03:02:00,VALID,0,VALID,99.0224,VALID,0,VALID,17.7192,VALID,169,VALID,0,
2000-03-24, 03:03:01,VALID,0,VALID,99.0046,VALID,-0.0169808,VALID,17.7201,VALID,171,VALID,0,
2000-03-24, 03:04:00,VALID,0,VALID,98.9881,VALID,-0.0169808,VALID,17.7003,VALID,183,VALID,0,
2000-03-24, 03:05:00,VALID,0,VALID,98.9893,VALID,-0.0169808,VALID,17.6939,VALID,201,VALID,0,
2000-03-24, 03:06:00,VALID,0,VALID,98.9855,VALID,-0.0169808,VALID,17.6911,VALID,204,VALID,0,
2000-03-24, 03:07:00,VALID,0,VALID,98.9626,VALID,-0.0509425,VALID,17.6842,VALID,201,VALID,0,
2000-03-24, 03:08:00,VALID,0,VALID,98.9105,VALID,0,VALID,17.6844,VALID,199,VALID,0,
2000-03-24, 03:09:00,VALID,0,VALID,98.9346,VALID,-0.0169808,VALID,17.6911,VALID,196,VALID,0,
2000-03-24, 03:10:00,VALID,0,VALID,98.852,VALID,0,VALID,17.6782,VALID,195,VALID,0,
2000-03-24, 03:11:00,VALID,0,VALID,98.7935,VALID,0,VALID,17.6579,VALID,182,VALID,0,
2000-03-24, 03:12:00,VALID,0,VALID,98.7833,VALID,-0.0339617,VALID,17.6685,VALID,159,VALID,0,
2000-03-24, 03:13:00,VALID,0,VALID,98.6918,VALID,0,VALID,17.6652,VALID,160,VALID,0.673077,
2000-03-24, 03:14:00,VALID,0,VALID,98.5989,VALID,0,VALID,17.6549,VALID,162,VALID,0.677083,
2000-03-24, 03:15:00,VALID,0,VALID,98.5277,VALID,-0.0339617,VALID,17.6583,VALID,162,VALID,0.508235,
2000-03-24, 03:16:00,VALID,0,VALID,98.5125,VALID,0,VALID,17.6715,VALID,162,VALID,0.0697115,
2000-03-24, 03:17:00,VALID,0,VALID,98.487,VALID,0,VALID,17.6583,VALID,165,VALID,0,
2000-03-24, 03:18:00,VALID,0,VALID,98.4998,VALID,0,VALID,17.6487,VALID,168,VALID,0,
2000-03-24, 03:19:00,VALID,0,VALID,98.5163,VALID,0,VALID,17.6321,VALID,170,VALID,0,
2000-03-24, 03:20:00,VALID,0,VALID,98.5443,VALID,-0.0169808,VALID,17.6392,VALID,170,VALID,0,
2000-03-24, 03:21:00,VALID,0,VALID,98.632,VALID,-0.0169808,VALID,17.6392,VALID,169,VALID,0,
2000-03-24, 03:22:00,VALID,0,VALID,98.7045,VALID,-0.0169808,VALID,17.6452,VALID,168,VALID,0,
2000-03-24, 03:23:00,VALID,0,VALID,98.7274,VALID,0,VALID,17.6422,VALID,166,VALID,0,
2000-03-24, 03:24:00,VALID,0,VALID,98.7757,VALID,0,VALID,17.6487,VALID,166,VALID,0,
2000-03-24, 03:25:01,VALID,0,VALID,98.8113,VALID,-0.0509425,VALID,17.6491,VALID,162,VALID,0,
2000-03-24, 03:26:00,VALID,0,VALID,98.8469,VALID,-0.0679233,VALID,17.6433,VALID,143,VALID,0,
2000-03-24, 03:27:00,VALID,0,VALID,98.8774,VALID,-0.0849042,VALID,17.6399,VALID,130,VALID,0,
2000-03-24, 03:28:00,VALID,0,VALID,98.8774,VALID,-0.101885,VALID,17.6341,VALID,127,VALID,0,
2000-03-24, 03:29:00,VALID,0,VALID,98.9067,VALID,-0.0339617,VALID,17.6205,VALID,125,VALID,0,
2000-03-24, 03:30:00,VALID,0,VALID,98.9525,VALID,-0.0679233,VALID,17.6336,VALID,115,VALID,0,
2000-03-24, 03:31:00,VALID,0,VALID,98.9753,VALID,-0.0679233,VALID,17.6242,VALID,106,VALID,0,
2000-03-24, 03:32:00,VALID,0,VALID,98.9868,VALID,-0.0849042,VALID,17.6269,VALID,101,VALID,0,
2000-03-24, 03:33:00,VALID,0,VALID,98.969,VALID,-0.0169808,VALID,17.591,VALID,110,VALID,0,
2000-03-24, 03:34:00,VALID,0,VALID,98.9283,VALID,-0.0679233,VALID,17.5787,VALID,122,VALID,0,
2000-03-24, 03:35:00,VALID,0,VALID,98.9168,VALID,-0.0679233,VALID,17.5467,VALID,122,VALID,0,
2000-03-24, 03:36:01,VALID,0,VALID,98.9626,VALID,-0.0679233,VALID,17.5432,VALID,122,VALID,0,
2000-03-24, 03:37:00,VALID,0,VALID,98.9855,VALID,-0.0679233,VALID,17.5499,VALID,122,VALID,0,
2000-03-24, 03:38:00,VALID,0,VALID,98.983,VALID,-0.0849042,VALID,17.5372,VALID,122,VALID,0,
2000-03-24, 03:39:00,VALID,0,VALID,99.0237,VALID,-0.0509425,VALID,17.5402,VALID,122,VALID,0,
2000-03-24, 03:40:00,VALID,0,VALID,99.0173,VALID,-0.0339617,VALID,17.5232,VALID,122,VALID,0,
2000-03-24, 03:41:00,VALID,0,VALID,99.0707,VALID,0.0339617,VALID,17.529,VALID,122,VALID,0,
2000-03-24, 03:42:00,VALID,0,VALID,99.0313,VALID,0.0509425,VALID,17.529,VALID,122,VALID,0,
2000-03-24, 03:43:00,VALID,0,VALID,99.0555,VALID,0.0339617,VALID,17.5129,VALID,122,VALID,0,
2000-03-24, 03:44:00,VALID,0,VALID,99.0516,VALID,0.0849042,VALID,17.5159,VALID,122,VALID,0,
2000-03-24, 03:45:00,VALID,0,VALID,99.0338,VALID,0.0169808,VALID,17.4965,VALID,157,VALID,0,
2000-03-24, 03:46:00,VALID,0,VALID,99.0377,VALID,0.0339617,VALID,17.4935,VALID,196,VALID,0,
2000-03-24, 03:47:01,VALID,0,VALID,99.0605,VALID,0.0339617,VALID,17.4806,VALID,198,VALID,0,
2000-03-24, 03:48:00,VALID,0,VALID,99.0872,VALID,0,VALID,17.4845,VALID,197,VALID,0.367588,
2000-03-24, 03:49:00,VALID,0,VALID,99.1076,VALID,0.0849042,VALID,17.4739,VALID,186,VALID,0.472762,
2000-03-24, 03:50:00,VALID,0,VALID,99.1356,VALID,0.0509425,VALID,17.481,VALID,189,VALID,0,
2000-03-24, 03:51:00,VALID,0,VALID,99.1623,VALID,0,VALID,17.4746,VALID,190,VALID,0,
2000-03-24, 03:52:00,VALID,0,VALID,99.2093,VALID,0.0509425,VALID,17.484,VALID,192,VALID,0,
2000-03-24, 03:53:00,VALID,0,VALID,99.2691,VALID,0.0169808,VALID,17.5032,VALID,201,VALID,0,
2000-03-24, 03:54:00,VALID,0,VALID,99.2882,VALID,0,VALID,17.5195,VALID,198,VALID,0,
2000-03-24, 03:55:00,VALID,0,VALID,99.339,VALID,0,VALID,17.5299,VALID,200,VALID,0.234145,
2000-03-24, 03:56:00,VALID,0,VALID,99.3581,VALID,-0.0679233,VALID,17.5564,VALID,205,VALID,0.177951,
2000-03-24, 03:57:01,VALID,0,VALID,99.3924,VALID,-0.0679233,VALID,17.5727,VALID,217,VALID,0.616776,
2000-03-24, 03:58:01,VALID,0,VALID,99.4051,VALID,-0.0509425,VALID,17.5886,VALID,224,VALID,0.18149,
2000-03-24, 03:59:00,VALID,0,VALID,99.4268,VALID,-0.0509425,VALID,17.5983,VALID,226,VALID,0,
2000-03-24, 04:00:00,VALID,0,VALID,99.4166,VALID,-0.0509425,VALID,17.6108,VALID,211,VALID,0,
2000-03-24, 04:01:00,VALID,0,VALID,99.4191,VALID,-0.0169808,VALID,17.6043,VALID,216,VALID,0,
2000-03-24, 04:02:00,VALID,0,VALID,99.4204,VALID,-0.0339617,VALID,17.6112,VALID,211,VALID,0,
2000-03-24, 04:03:00,VALID,0,VALID,99.409,VALID,-0.0849042,VALID,17.588,VALID,196,VALID,0,
2000-03-24, 04:04:00,VALID,0,VALID,99.4026,VALID,-0.101885,VALID,17.5921,VALID,194,VALID,0,
2000-03-24, 04:05:00,VALID,0,VALID,99.3861,VALID,-0.0509425,VALID,17.5953,VALID,192,VALID,0,
2000-03-24, 04:06:00,VALID,0,VALID,99.4179,VALID,-0.0849042,VALID,17.5723,VALID,189,VALID,0,
2000-03-24, 04:07:00,VALID,0,VALID,99.4204,VALID,-0.0509425,VALID,17.5723,VALID,188,VALID,0,
2000-03-24, 04:08:00,VALID,0,VALID,99.4471,VALID,-0.0509425,VALID,17.5753,VALID,188,VALID,0.19391,
2000-03-24, 04:09:01,VALID,0,VALID,99.4522,VALID,-0.101885,VALID,17.5757,VALID,192,VALID,0.638725,
2000-03-24, 04:10:00,VALID,0,VALID,99.4458,VALID,-0.0509425,VALID,17.5852,VALID,208,VALID,0.325921,
2000-03-24, 04:11:00,VALID,0,VALID,99.4369,VALID,-0.0679233,VALID,17.5889,VALID,199,VALID,0.067023,
2000-03-24, 04:12:00,VALID,0,VALID,99.4166,VALID,-0.0679233,VALID,17.579,VALID,187,VALID,0,
2000-03-24, 04:13:00,VALID,0,VALID,99.4064,VALID,-0.0679233,VALID,17.5725,VALID,184,VALID,0,
2000-03-24, 04:14:00,VALID,0,VALID,99.3772,VALID,-0.0679233,VALID,17.5658,VALID,184,VALID,0,
2000-03-24, 04:15:00,VALID,0,VALID,99.3759,VALID,-0.0849042,VALID,17.5626,VALID,173,VALID,0,
2000-03-24, 04:16:00,VALID,0,VALID,99.367,VALID,-0.0679233,VALID,17.5561,VALID,141,VALID,0,
2000-03-24, 04:17:00,VALID,0,VALID,99.3212,VALID,-0.0679233,VALID,17.5372,VALID,144,VALID,0,
2000-03-24, 04:18:00,VALID,0,VALID,99.3492,VALID,-0.0339617,VALID,17.5366,VALID,147,VALID,0,
2000-03-24, 04:19:01,VALID,0,VALID,99.3238,VALID,-0.0509425,VALID,17.5236,VALID,144,VALID,0,